World > North America > United States > Iowa

Hourly Cornell, IA Regional Weather

Feedback E-mail the Weather

Quick WX

Cornell, IA Weather Maps

°F °C°F °C
Cornell Weather Map
UTC Time: 7/3/2022, 12:34
Your Time:

Cornell, IA Regional Weather

Expires:202207031300;;607471
ASUS43 KFSD 031210
RWRFSD

WEATHER ROUNDUP FOR SE SOUTH DAKOTA/SW MINNESOTA/NW IOWA
NATIONAL WEATHER SERVICE SIOUX FALLS SD
700 AM CDT SUN JUL 03 2022

NOTE: "FAIR" INDICATES FEW OR NO CLOUDS BELOW 12,000 FEET WITH NO
SIGNIFICANT WEATHER AND OR OBSTRUCTIONS TO VISIBILITY.



IAZ001>003-012>014-020>022-031-032-NEZ013-014-SDZ071-031300-
NORTHWEST IOWA
  
CITY           SKY/WX    TMP DP  RH WIND       PRES   REMARKS
CHEROKEE       SUNNY     64  62  95 SE3       30.06F                  
ESTHERVILLE    SUNNY     62  59  90 S7        30.07R                  
LE MARS        SUNNY    N/A N/A N/A SE7       30.02F                  
MAURICE        FAIR      64  64 100 SE12      30.01F                  
SHELDON        SUNNY     64  64 100 S5        30.04S                  
SIOUX CITY     SUNNY     64  62  93 SE12      30.03F                  
6HR MIN TEMP:  63; 6HR MAX TEMP:  68;                                

SPENCER        SUNNY     65  59  81 CALM      30.07R                  
6HR MIN TEMP:  63; 6HR MAX TEMP:  67;                                

STORM LAKE     SUNNY     63  63 100 S7        30.08R                  
$$
 
ABBREVIATIONS USED IN REMARKS
   TC - TEMPERATURE IN CELSIUS
  WCI - WIND CHILL INDEX
   HX - HEAT INDEX
  VSB - VISIBILITY

  

SKY/WX - Weather  TMP - Temperature  DP - Dew Point  RH - Humidity
WIND - Wind Direction/Speed PRES - Barometric Pressure VSB - Visibility
WCI - Wind Chill Index E13G22 Wind - East Wind 13 mph/Gusts of 22 mph

Trending Headlines

Cornell Radar Loop



Cornell Quick Facts


National Two Day Weather Forecast


E-mail the Cornell Weather Forecast

Voice your opinion or tell us about page issues...